सभी
Munduberra Hospital Helipad Airport (Munduberra, Australia) YXDR मौसम
There is no TAF data available at YXDR or any nearby airports.
There is no METAR data available at YXDR. Showing METAR data for YGAY (20 mi E).
Recent GAH METAR history (no data for YXDR)
| Date | Time (AEST) | Flight Rules | Wind Dir. | Speed | Type | Height AGL (ft) | Visibility | Temp (°C) | Temp (°F) | Dew Point (°C) | Dew Point (°F) | Rel. Humid. | Pressure | Density Altitude | Remarks |
|---|---|---|---|---|---|---|---|---|---|---|---|---|---|---|---|
| 03-मई | 06:00 | n/a | Calm | Missing | 14° | 57° | 14° | 57° | 100% | 1019 mb | 78 ft | ||||
| 03-मई | 05:00 | n/a | 230° | 2 kt | Missing | 15° | 59° | 15° | 59° | 100% | 1019 mb | 198 ft | |||
| 03-मई | 04:00 | n/a | 240° | 2 kt | Missing | 15° | 59° | 15° | 59° | 100% | 1018 mb | 227 ft | |||
| 03-मई | 03:00 | n/a | 200° | 2 kt | Missing | 16° | 60° | 16° | 60° | 100% | 1018 mb | 347 ft | |||
| 03-मई | 02:00 | n/a | 250° | 3 kt | Missing | 16° | 60° | 16° | 60° | 100% | 1019 mb | 318 ft | |||
| 03-मई | 01:00 | n/a | 270° | 3 kt | Missing | 17° | 62° | 16° | 60° | 94% | 1019 mb | 438 ft | |||
| 03-मई | 00:00 | n/a | Calm | Missing | 16° | 60° | 16° | 60° | 100% | 1019 mb | 318 ft | ||||
| 02-मई | 23:00 | n/a | Calm | Missing | 17° | 62° | 16° | 60° | 94% | 1020 mb | 408 ft | ||||
| 02-मई | 22:00 | n/a | 220° | 2 kt | Missing | 18° | 64° | 16° | 60° | 88% | 1020 mb | 528 ft | |||
| 02-मई | 21:00 | n/a | 290° | 1 kt | Missing | 19° | 66° | 17° | 62° | 88% | 1020 mb | 648 ft | |||
| 02-मई | 20:00 | n/a | Calm | Missing | 19° | 66° | 16° | 60° | 83% | 1019 mb | 678 ft | ||||
| 02-मई | 19:00 | n/a | 80° | 2 kt | Missing | 21° | 69° | 17° | 62° | 78% | 1019 mb | 918 ft | |||
| 02-मई | 18:00 | n/a | 90° | 5 kt | Missing | 22° | 71° | 17° | 62° | 73% | 1018 mb | 1,067 ft | |||
| 02-मई | 17:00 | n/a | 90° | 10 kt | Missing | 23° | 73° | 17° | 62° | 69% | 1017 mb | 1,217 ft | |||
| 02-मई | 16:00 | n/a | 90° | 14 kt | Missing | 26° | 78° | 16° | 60° | 54% | 1017 mb | 1,577 ft | |||
| 02-मई | 15:00 | n/a | 100° | 13 kt | Missing | 27° | 80° | 17° | 62° | 54% | 1017 mb | 1,697 ft | |||
| 02-मई | 14:00 | n/a | 90° | 12 kt | Missing | 26° | 78° | 19° | 66° | 65% | 1017 mb | 1,577 ft | |||
| 02-मई | 13:00 | n/a | 120° | 10 kt | Missing | 24° | 75° | 19° | 66° | 74% | 1018 mb | 1,307 ft | |||
| 02-मई | 12:00 | n/a | 90° | 13 kt | Missing | 27° | 80° | 19° | 66° | 62% | 1018 mb | 1,667 ft | |||
| 02-मई | 11:00 | n/a | 80° | 15 kt | Missing | 28° | 82° | 18° | 64° | 55% | 1019 mb | 1,758 ft | |||
| 02-मई | 10:00 | n/a | 110° | 11 kt | Missing | 26° | 78° | 19° | 66° | 65% | 1020 mb | 1,488 ft | |||
| 02-मई | 09:00 | n/a | 100° | 5 kt | Missing | 23° | 73° | 18° | 64° | 73% | 1020 mb | 1,128 ft | |||
| 02-मई | 08:00 | n/a | 210° | 1 kt | Missing | 21° | 69° | 18° | 64° | 83% | 1020 mb | 888 ft | |||
| 02-मई | 07:00 | n/a | 270° | 3 kt | Missing | 18° | 64° | 17° | 62° | 94% | 1019 mb | 558 ft |
लॉगिन
| Your browser is unsupported. अपना ब्राऊजर अपग्रेड करें |
